TimeCST,TemperatureF,Dew PointF,Humidity,Sea Level PressureIn,VisibilityMPH,Wind Direction,Wind SpeedMPH,Gust SpeedMPH,PrecipitationIn,Events,Conditions,WindDirDegrees,DateUTC
12:53 AM,12.9,8.1,81,30.42,10.0,East,3.5,-,N/A,,Clear,90,2012-12-05 06:53:00
1:53 AM,12.9,8.1,81,30.42,10.0,SE,5.8,-,N/A,,Clear,130,2012-12-05 07:53:00
2:53 AM,12.9,9.0,84,30.40,10.0,ESE,4.6,-,N/A,,Clear,110,2012-12-05 08:53:00
3:53 AM,12.0,8.1,84,30.38,10.0,SE,5.8,-,N/A,,Clear,130,2012-12-05 09:53:00
4:53 AM,12.9,8.1,81,30.37,10.0,SE,8.1,-,N/A,,Clear,140,2012-12-05 10:53:00
5:53 AM,12.9,8.1,81,30.35,10.0,SE,8.1,-,N/A,,Clear,130,2012-12-05 11:53:00
6:53 AM,12.9,9.0,84,30.34,10.0,SE,10.4,-,N/A,,Clear,140,2012-12-05 12:53:00
8:53 AM,16.0,10.0,77,30.30,10.0,SE,13.8,-,N/A,,Clear,140,2012-12-05 14:53:00
9:53 AM,19.0,10.0,68,30.26,10.0,SE,19.6,-,N/A,,Clear,140,2012-12-05 15:53:00
10:53 AM,21.9,10.9,63,30.22,10.0,SE,20.7,25.3,N/A,,Clear,140,2012-12-05 16:53:00
11:53 AM,25.0,10.0,53,30.14,10.0,SE,18.4,23.0,N/A,,Clear,140,2012-12-05 17:53:00
12:53 PM,27.0,10.0,49,30.07,10.0,SE,19.6,25.3,N/A,,Clear,140,2012-12-05 18:53:00
1:53 PM,28.9,12.0,49,30.02,10.0,SE,16.1,-,N/A,,Clear,140,2012-12-05 19:53:00
2:53 PM,30.9,14.0,50,29.99,10.0,SSE,18.4,24.2,N/A,,Clear,160,2012-12-05 20:53:00
3:53 PM,30.0,15.1,54,29.97,10.0,SSE,20.7,27.6,N/A,,Clear,160,2012-12-05 21:53:00
4:53 PM,30.0,15.1,54,29.93,10.0,SSE,20.7,27.6,N/A,,Clear,160,2012-12-05 22:53:00
5:53 PM,30.0,15.1,54,29.90,10.0,SSE,16.1,24.2,N/A,,Clear,160,2012-12-05 23:53:00
6:53 PM,30.0,16.0,56,29.87,10.0,SSE,15.0,21.9,N/A,,Clear,150,2012-12-06 00:53:00
7:53 PM,30.9,17.1,57,29.86,10.0,SSE,13.8,-,N/A,,Scattered Clouds,160,2012-12-06 01:53:00
8:53 PM,30.9,18.0,59,29.81,10.0,SSE,13.8,-,N/A,,Clear,160,2012-12-06 02:53:00
9:53 PM,33.1,19.9,59,29.79,10.0,SSE,13.8,-,N/A,,Mostly Cloudy,160,2012-12-06 03:53:00
10:53 PM,34.0,21.0,59,29.78,10.0,South,9.2,-,N/A,,Overcast,170,2012-12-06 04:53:00
11:53 PM,35.1,23.0,61,29.75,10.0,South,10.4,-,N/A,,Mostly Cloudy,170,2012-12-06 05:53:00